Weather History for KROX - January, 2013

Change the Weather History Date:

Friday, January 4, 2013

  Actual Average Record
Temperature  
Mean Temperature 10 °F -  
Max Temperature 24 °F 7 °F 44 °F (2007)
Min Temperature -5 °F -13 °F -44 °F (1968)
Degree Days  
Heating Degree Days 55    
Moisture  
Dew Point 9 °F    
Average Humidity 76    
Maximum Humidity 85    
Minimum Humidity 68    
Precipitation  
Precipitation 0.00 in - - ()
Sea Level Pressure  
Sea Level Pressure 29.97 in    
Wind  
Wind Speed 8 mph (WSW)    
Max Wind Speed 13 mph    
Max Gust Speed -    
Visibility 9 miles    
Events      
Averages and records for this station are not official NWS values.
T = Trace of Precipitation, MM = Missing Value Source: NWS Daily Summary

Daily Weather History Graph

Daily Weather History Graph

Search for Another Location

Airport or City:

Trip Planner

Search our weather history database for the weather conditions in past years. The results will help you decide how hot, cold, wet, or windy it might be!

Date:

Astronomy

Jan. 04, 2013 Rise Set
Actual Time 8:15 AM CST 4:40 PM CST
Civil Twilight 7:39 AM CST 5:17 PM CST
Nautical Twilight 6:59 AM CST 5:57 PM CST
Astronomical Twilight 6:20 AM CST 6:35 PM CST
Moon No Moon Rise 11:19 AM CST (1/4)
Length of Visible Light 9h 38m
Length of Day
8h 24m
Waning Gibbous, 55% of the Moon is Illuminated
Jan 4
Waning Gibbous
Jan 4
Last Quarter
Jan 11
New
Jan 18
First Quarter
Jan 26
Full

Hourly Weather History & Observations

Time (CST) Temp. Windchill Dew Point Humidity Pressure Visibility Wind Dir Wind Speed Gust Speed Precip Events Conditions
12:14 AM 19.4 °F 7.9 °F 12.2 °F 74% 29.83 in 10.0 mi SW 10.4 mph - N/A   Clear
12:34 AM 19.4 °F 8.6 °F 12.2 °F 74% 29.84 in 10.0 mi SW 9.2 mph - N/A   Clear
12:54 AM 17.6 °F 6.4 °F 10.4 °F 73% 29.84 in 10.0 mi SW 9.2 mph - N/A   Clear
1:14 AM 17.6 °F 5.0 °F 10.4 °F 73% 29.84 in 10.0 mi SW 11.5 mph - N/A   Clear
1:34 AM 17.6 °F 6.4 °F 10.4 °F 73% 29.84 in 10.0 mi SW 9.2 mph - N/A   Clear
1:54 AM 17.6 °F 7.3 °F 10.4 °F 73% 29.84 in 10.0 mi SW 8.1 mph - N/A   Clear
2:14 AM 15.8 °F 7.2 °F 8.6 °F 73% 29.85 in 10.0 mi SW 5.8 mph - N/A   Clear
2:34 AM 17.6 °F 8.2 °F 10.4 °F 73% 29.85 in 10.0 mi WSW 6.9 mph - N/A   Clear
2:54 AM 17.6 °F 7.3 °F 10.4 °F 73% 29.86 in 10.0 mi WSW 8.1 mph - N/A   Clear
3:14 AM 17.6 °F 8.2 °F 10.4 °F 73% 29.86 in 10.0 mi West 6.9 mph - N/A   Clear
3:34 AM 17.6 °F 6.4 °F 12.2 °F 79% 29.86 in 10.0 mi West 9.2 mph - N/A   Clear
3:54 AM 17.6 °F 7.3 °F 12.2 °F 79% 29.88 in 10.0 mi West 8.1 mph - N/A   Clear
4:14 AM 19.4 °F 7.9 °F 12.2 °F 74% 29.88 in 10.0 mi West 10.4 mph - N/A   Clear
4:34 AM 19.4 °F 8.6 °F 12.2 °F 74% 29.88 in 10.0 mi West 9.2 mph - N/A   Clear
4:54 AM 19.4 °F 8.6 °F 12.2 °F 74% 29.88 in 10.0 mi West 9.2 mph - N/A   Clear
5:14 AM 17.6 °F 8.2 °F 12.2 °F 79% 29.89 in 10.0 mi WSW 6.9 mph - N/A   Clear
5:34 AM 17.6 °F 6.4 °F 12.2 °F 79% 29.89 in 10.0 mi West 9.2 mph - N/A   Clear
6:14 AM 17.6 °F 7.3 °F 12.2 °F 79% 29.91 in 10.0 mi WSW 8.1 mph - N/A   Clear
6:34 AM 15.8 °F 6.1 °F 8.6 °F 73% 29.91 in 10.0 mi WSW 6.9 mph - N/A   Clear
6:54 AM 17.6 °F 5.7 °F 12.2 °F 79% 29.92 in 10.0 mi West 10.4 mph - N/A   Clear
7:14 AM 17.6 °F 5.7 °F 12.2 °F 79% 29.92 in 10.0 mi West 10.4 mph - N/A   Clear
7:34 AM 17.6 °F 5.7 °F 10.4 °F 73% 29.92 in 10.0 mi West 10.4 mph - N/A   Clear
7:54 AM 15.8 °F 2.1 °F 10.4 °F 79% 29.92 in 10.0 mi West 12.7 mph - N/A   Clear
8:15 AM 15.8 °F 2.7 °F 10.4 °F 79% 29.93 in 10.0 mi West 11.5 mph - N/A   Clear
8:34 AM 15.8 °F 3.4 °F 8.6 °F 73% 29.94 in 10.0 mi West 10.4 mph - N/A   Clear
8:54 AM 15.8 °F 3.4 °F 8.6 °F 73% 29.95 in 10.0 mi West 10.4 mph - N/A   Clear
9:15 AM 15.8 °F 3.4 °F 10.4 °F 79% 29.96 in 10.0 mi West 10.4 mph - N/A   Clear
9:34 AM 15.8 °F 3.4 °F 10.4 °F 79% 29.97 in 10.0 mi West 10.4 mph - N/A   Clear
9:54 AM 15.8 °F 3.4 °F 10.4 °F 79% 29.98 in 10.0 mi West 10.4 mph - N/A   Clear
10:15 AM 17.6 °F 6.4 °F 10.4 °F 73% 29.99 in 10.0 mi West 9.2 mph - N/A   Clear
10:34 AM 17.6 °F 6.4 °F 10.4 °F 73% 30.01 in 10.0 mi West 9.2 mph - N/A   Clear
10:54 AM 19.4 °F 8.6 °F 12.2 °F 74% 30.01 in 10.0 mi West 9.2 mph - N/A   Clear
11:14 AM 19.4 °F 9.5 °F 12.2 °F 74% 30.01 in 10.0 mi West 8.1 mph - N/A   Clear
11:34 AM 19.4 °F 9.5 °F 12.2 °F 74% 30.01 in 10.0 mi West 8.1 mph - N/A   Clear
11:54 AM 21.2 °F 10.1 °F 12.2 °F 68% 30.01 in 10.0 mi West 10.4 mph - N/A   Clear
12:14 PM 21.2 °F 10.9 °F 14.0 °F 74% 30.01 in 10.0 mi West 9.2 mph - N/A   Clear
12:34 PM 21.2 °F 10.9 °F 15.8 °F 80% 30.01 in 10.0 mi West 9.2 mph - N/A   Clear
12:54 PM 21.2 °F 10.1 °F 15.8 °F 80% 30.01 in 10.0 mi West 10.4 mph - N/A   Clear
1:14 PM 23.0 °F 12.4 °F 15.8 °F 74% 30.02 in 10.0 mi West 10.4 mph - N/A   Clear
1:34 PM 23.0 °F 13.1 °F 15.8 °F 74% 30.02 in 10.0 mi West 9.2 mph - N/A   Clear
1:54 PM 23.0 °F 13.1 °F 15.8 °F 74% 30.02 in 10.0 mi West 9.2 mph - N/A   Clear
2:14 PM 24.8 °F 16.1 °F 15.8 °F 69% 30.02 in 10.0 mi West 8.1 mph - N/A   Clear
2:34 PM 23.0 °F 13.9 °F 15.8 °F 74% 30.02 in 10.0 mi West 8.1 mph - N/A   Clear
2:54 PM 24.8 °F 15.3 °F 15.8 °F 69% 30.02 in 10.0 mi West 9.2 mph - N/A   Clear
3:14 PM 23.0 °F 13.1 °F 15.8 °F 74% 30.03 in 10.0 mi West 9.2 mph - N/A   Clear
3:34 PM 24.8 °F 16.9 °F 15.8 °F 69% 30.03 in 10.0 mi West 6.9 mph - N/A   Clear
3:54 PM 24.8 °F 17.9 °F 17.6 °F 74% 30.03 in 10.0 mi West 5.8 mph - N/A   Clear
4:14 PM 24.8 °F 17.9 °F 17.6 °F 74% 30.03 in 10.0 mi West 5.8 mph - N/A   Clear
4:34 PM 24.8 °F 19.1 °F 15.8 °F 69% 30.04 in 10.0 mi WSW 4.6 mph - N/A   Clear
5:34 PM 12.2 °F 4.3 °F 8.6 °F 85% 30.06 in 10.0 mi SW 4.6 mph - N/A   Clear
5:54 PM 17.6 °F 9.3 °F 12.2 °F 79% 30.06 in 10.0 mi SW 5.8 mph - N/A   Clear
6:00 PM 17.6 °F 10.7 °F 12.2 °F 79% 30.06 in 10.0 mi WSW 4.6 mph - N/A   Clear
6:34 PM 12.2 °F - 8.6 °F 85% 30.07 in 10.0 mi Calm Calm - N/A   Clear
6:54 PM 12.2 °F 6.1 °F 8.6 °F 85% 30.07 in 10.0 mi SW 3.5 mph - N/A   Clear
7:14 PM 8.6 °F -1.3 °F 3.2 °F 79% 30.08 in 10.0 mi West 5.8 mph - N/A   Clear
7:34 PM 12.2 °F - 8.6 °F 85% 30.07 in 10.0 mi Calm Calm - N/A   Clear
7:54 PM 14.0 °F - 8.6 °F 79% 30.06 in 10.0 mi Calm Calm - N/A   Clear
8:14 PM 6.8 °F - 1.4 °F 79% 30.05 in 10.0 mi Calm Calm - N/A   Clear
8:34 PM 6.8 °F - 3.2 °F 85% 30.05 in 10.0 mi Calm Calm - N/A   Clear
8:54 PM 6.8 °F - -0.4 °F 72% 30.05 in 10.0 mi Calm Calm - N/A   Clear
9:14 PM 1.4 °F -6.2 °F -5.8 °F 72% 30.05 in 7.0 mi NE 3.5 mph - N/A   Clear
9:34 PM -0.4 °F - -5.8 °F 78% 30.05 in 4.0 mi Calm Calm - N/A   Haze
9:54 PM 1.4 °F - -2.2 °F 85% 30.05 in 2.5 mi Calm Calm - N/A   Haze
10:14 PM 3.2 °F - -2.2 °F 78% 30.05 in 1.0 mi Calm Calm - N/A   Haze
10:34 PM 3.2 °F - -2.2 °F 78% 30.05 in 0.2 mi Calm Calm - N/A   Haze
11:14 PM -2.2 °F - -7.6 °F 78% 30.06 in 0.5 mi Calm Calm - N/A   Haze
11:34 PM -4.0 °F - -9.4 °F 78% 30.06 in 0.2 mi Calm Calm - N/A   Haze
11:54 PM -5.8 °F - -11.2 °F 77% 30.04 in 1.2 mi Calm Calm - N/A   Haze